EW8775 Weather Reports


Display with metric or nautical units.
time (UTC)temp
F
wind
direction
speed
MPH
gust
MPH
rain 1hr
in
rain 24hr
in
rain mn
in
humidity
%
barometer
mb
20260505073016 55 113 6.0 18.0 0.01 0.01 0.01 57 1007.9
20260505070016 52 135 4.0 15.0 0.01 0.01 0.01 72 1007.4
20260505063016 54 158 4.0 11.0 0.00 0.00 0.00 75 1008.4
20260505060016 55 180 5.0 12.0 0.00 0.00 0.00 71 1008.6
20260505053017 55 158 5.0 15.0 0.00 0.00 0.00 69 1008.0
20260505040056 58 158 8.0 21.0 0.00 0.00 0.00 61 1007.1
20260505033016 61 180 2.0 9.0 0.00 0.00 0.00 53 1006.2
20260505030016 62 90 1.0 3.0 0.00 0.00 0.00 41 1004.8
20260505023056 64 0.0 4.0 0.00 0.00 0.00 41 1004.7
20260505020016 65 180 2.0 9.0 0.00 0.00 0.00 39 1004.3
20260505013016 65 113 3.0 11.0 0.00 0.00 0.00 36 1004.6
20260505010016 65 158 7.0 15.0 0.00 0.00 0.00 40 1004.8
20260505003016 67 180 3.0 14.0 0.00 0.00 0.00 39 1005.8
20260505000016 69 315 1.0 10.0 0.00 0.00 0.00 32 1005.4
20260504233016 71 23 3.0 12.0 0.00 0.00 0.00 32 1005.8
20260504230056 71 23 7.0 19.0 0.00 0.00 0.00 32 1005.7
20260504223016 72 0 6.0 18.0 0.00 0.00 0.00 30 1006.2
20260504220016 73 225 2.0 12.0 0.00 0.00 0.00 29 1006.4
20260504213016 72 203 4.0 16.0 0.00 0.00 0.00 31 1006.7
20260504210016 72 180 4.0 17.0 0.00 0.00 0.00 28 1006.9
20260504203016 72 203 4.0 11.0 0.00 0.00 0.00 28 1006.7
20260504200015 72 180 4.0 13.0 0.00 0.00 0.00 27 1006.6
20260504193015 71 203 4.0 12.0 0.00 0.00 0.00 33 1007.4
20260504190016 70 180 4.0 14.0 0.00 0.00 0.00 32 1007.8
20260504183018 70 180 3.0 10.0 0.00 0.00 0.00 33 1008.2
20260504180016 68 180 5.0 13.0 0.00 0.00 0.00 32 1008.3
20260504173017 67 180 5.0 12.0 0.00 0.00 0.00 35 1008.5